AEE941 LGIR-LGAV

Flight info

Callsign AEE941
Flight time 0h 36m
Altitude 28000
Route EPALO M749 DIRMI UM749 MIL UY144 BADEL
Aircraft A320/M-SDE3FGHIRWY/LB1

Departure

Time 2026-05-05 19:53
Airport Heraklion International Nikos Kazantzakis Airport (LGIR)

Arrival

Time 2026-05-05 20:29
Airport Athens Eleftherios Venizelos International Airport (LGAV)
Time Latitude Longitude Altitude Speed Heading
2026-05-05 19:27 35.33869 25.17547 90 ft 0 kts 314°
2026-05-05 19:46 35.33871 25.17545 91 ft 2 kts 314°
2026-05-05 19:47 35.33882 25.17537 93 ft 2 kts 342°
2026-05-05 19:47 35.33900 25.17550 93 ft 4 kts 49°
2026-05-05 19:47 35.33905 25.17586 92 ft 5 kts 89°
2026-05-05 19:47 35.33902 25.17635 92 ft 7 kts 92°
2026-05-05 19:48 35.33898 25.17699 92 ft 8 kts 94°
2026-05-05 19:48 35.33893 25.17778 93 ft 10 kts 95°
2026-05-05 19:48 35.33886 25.17874 93 ft 13 kts 95°
2026-05-05 19:48 35.33878 25.17992 93 ft 15 kts 95°
2026-05-05 19:49 35.33870 25.18112 94 ft 13 kts 94°
2026-05-05 19:49 35.33864 25.18188 93 ft 14 kts 95°
2026-05-05 19:49 35.33852 25.18368 90 ft 18 kts 96°
2026-05-05 19:49 35.33841 25.18530 90 ft 14 kts 95°
2026-05-05 19:50 35.33833 25.18648 90 ft 15 kts 95°
2026-05-05 19:50 35.33823 25.18785 90 ft 15 kts 95°
2026-05-05 19:50 35.33817 25.18869 90 ft 10 kts 95°
2026-05-05 19:50 35.33823 25.18930 90 ft 8 kts 69°
2026-05-05 19:51 35.33858 25.18999 90 ft 7 kts 55°
2026-05-05 19:51 35.33880 25.19038 92 ft 5 kts 46°
2026-05-05 19:51 35.33911 25.19020 90 ft 7 kts 280°
2026-05-05 19:51 35.33910 25.18971 91 ft 5 kts 274°
2026-05-05 19:52 35.33910 25.18965 89 ft 0 kts 274°
2026-05-05 19:52 35.33911 25.18955 90 ft 13 kts 274°
2026-05-05 19:52 35.33939 25.18535 89 ft 83 kts 274°
2026-05-05 19:52 35.34004 25.17595 92 ft 135 kts 275°
2026-05-05 19:53 35.34098 25.16301 295 ft 157 kts 274°
2026-05-05 19:53 35.34279 25.15004 906 ft 156 kts 288°
2026-05-05 19:53 35.34913 25.13906 1424 ft 164 kts 324°
2026-05-05 19:53 35.35980 25.13433 1982 ft 168 kts 350°
2026-05-05 19:54 35.37179 25.13123 2275 ft 186 kts 346°
2026-05-05 19:54 35.38508 25.12700 2496 ft 209 kts 343°
2026-05-05 19:54 35.39986 25.12197 2733 ft 233 kts 342°
2026-05-05 19:54 35.41627 25.11625 3123 ft 257 kts 341°
2026-05-05 19:55 35.43360 25.11016 3973 ft 260 kts 341°
2026-05-05 19:55 35.45099 25.10405 4974 ft 259 kts 342°
2026-05-05 19:55 35.46828 25.09802 5967 ft 258 kts 344°
2026-05-05 19:55 35.48549 25.09205 6871 ft 258 kts 344°
2026-05-05 19:56 35.50282 25.08593 7728 ft 260 kts 344°
2026-05-05 19:56 35.52032 25.07971 8551 ft 263 kts 344°
2026-05-05 19:56 35.53802 25.07341 9379 ft 266 kts 345°
2026-05-05 19:56 35.55594 25.06704 10175 ft 269 kts 344°
2026-05-05 19:57 35.57441 25.06047 10586 ft 287 kts 344°
2026-05-05 19:57 35.58747 25.05582 10717 ft 303 kts 344°
2026-05-05 19:57 35.61577 25.04576 11092 ft 326 kts 344°
2026-05-05 19:57 35.63746 25.03805 11690 ft 331 kts 343°
2026-05-05 19:58 35.65971 25.03014 12359 ft 334 kts 343°
2026-05-05 19:58 35.68217 25.02218 13007 ft 338 kts 343°
2026-05-05 19:58 35.70485 25.01412 13678 ft 340 kts 343°
2026-05-05 19:58 35.72755 25.00555 14325 ft 342 kts 340°
2026-05-05 19:59 35.75006 24.99565 14943 ft 345 kts 338°
2026-05-05 19:59 35.77249 24.98494 15540 ft 347 kts 337°
2026-05-05 19:59 35.79503 24.97389 16130 ft 349 kts 337°
2026-05-05 19:59 35.81765 24.96278 16709 ft 351 kts 337°
2026-05-05 20:00 35.83305 24.95526 17105 ft 353 kts 337°
2026-05-05 20:00 35.85598 24.94421 17668 ft 355 kts 337°
2026-05-05 20:00 35.87914 24.93319 18233 ft 358 kts 337°
2026-05-05 20:00 35.90245 24.92219 18794 ft 360 kts 337°
2026-05-05 20:01 35.92594 24.91114 19340 ft 362 kts 337°
2026-05-05 20:01 35.94955 24.90005 19898 ft 365 kts 337°
2026-05-05 20:01 35.97338 24.88884 20463 ft 367 kts 337°
2026-05-05 20:01 35.99701 24.87769 20983 ft 369 kts 337°
2026-05-05 20:02 36.02107 24.86630 21473 ft 371 kts 337°
2026-05-05 20:02 36.04521 24.85486 21951 ft 373 kts 337°
2026-05-05 20:02 36.06950 24.84335 22407 ft 375 kts 337°
2026-05-05 20:02 36.09389 24.83184 22860 ft 376 kts 337°
2026-05-05 20:03 36.11845 24.82023 23308 ft 378 kts 337°
2026-05-05 20:03 36.14307 24.80858 23742 ft 380 kts 337°
2026-05-05 20:03 36.16780 24.79689 24174 ft 382 kts 337°
2026-05-05 20:03 36.19265 24.78513 24575 ft 383 kts 337°
2026-05-05 20:04 36.21766 24.77324 24986 ft 385 kts 337°
2026-05-05 20:04 36.24267 24.76132 25372 ft 386 kts 337°
2026-05-05 20:04 36.26781 24.74938 25777 ft 388 kts 337°
2026-05-05 20:04 36.29305 24.73736 26163 ft 389 kts 337°
2026-05-05 20:05 36.31836 24.72527 26548 ft 390 kts 337°
2026-05-05 20:05 36.34373 24.71313 26927 ft 392 kts 337°
2026-05-05 20:05 36.36921 24.70091 27303 ft 393 kts 337°
2026-05-05 20:05 36.39471 24.68871 27668 ft 394 kts 337°
2026-05-05 20:06 36.42043 24.67643 27995 ft 396 kts 337°
2026-05-05 20:06 36.47138 24.65206 28092 ft 394 kts 337°
2026-05-05 20:07 36.52249 24.62764 28091 ft 393 kts 337°
2026-05-05 20:07 36.57358 24.60320 28092 ft 393 kts 337°
2026-05-05 20:08 36.62463 24.57870 28090 ft 393 kts 337°
2026-05-05 20:08 36.67559 24.55411 28093 ft 393 kts 337°
2026-05-05 20:09 36.72589 24.52793 28095 ft 391 kts 329°
2026-05-05 20:09 36.76733 24.48438 28092 ft 392 kts 311°
2026-05-05 20:09 36.78351 24.45716 27552 ft 390 kts 308°
2026-05-05 20:10 36.79923 24.42970 26911 ft 387 kts 308°
2026-05-05 20:10 36.81472 24.40235 26276 ft 384 kts 308°
2026-05-05 20:10 36.83005 24.37516 25617 ft 382 kts 307°
2026-05-05 20:10 36.84530 24.34812 24970 ft 379 kts 307°
2026-05-05 20:11 36.86050 24.32124 24325 ft 377 kts 307°
2026-05-05 20:11 36.87559 24.29462 23680 ft 375 kts 307°
2026-05-05 20:11 36.89061 24.26813 23038 ft 373 kts 307°
2026-05-05 20:11 36.90558 24.24179 22415 ft 371 kts 307°
2026-05-05 20:12 36.92045 24.21559 21809 ft 368 kts 307°
2026-05-05 20:12 36.93523 24.18952 21218 ft 366 kts 307°
2026-05-05 20:12 36.94973 24.16394 20643 ft 364 kts 307°
2026-05-05 20:12 36.96434 24.13815 20084 ft 362 kts 307°
2026-05-05 20:13 36.97882 24.11250 19512 ft 360 kts 307°
2026-05-05 20:13 36.99326 24.08693 18930 ft 359 kts 307°
2026-05-05 20:13 37.00763 24.06149 18353 ft 357 kts 307°
2026-05-05 20:13 37.02187 24.03622 17787 ft 355 kts 307°
2026-05-05 20:14 37.03603 24.01107 17207 ft 353 kts 307°
2026-05-05 20:14 37.05014 23.98602 16624 ft 351 kts 307°
2026-05-05 20:14 37.06419 23.96108 16010 ft 349 kts 307°
2026-05-05 20:14 37.07817 23.93622 15396 ft 348 kts 307°
2026-05-05 20:15 37.09207 23.91147 14811 ft 347 kts 307°
2026-05-05 20:15 37.10588 23.88683 14232 ft 345 kts 307°
2026-05-05 20:15 37.11964 23.86227 13647 ft 343 kts 307°
2026-05-05 20:15 37.13330 23.83785 13060 ft 342 kts 307°
2026-05-05 20:16 37.14691 23.81350 12476 ft 340 kts 307°
2026-05-05 20:16 37.16104 23.78976 11883 ft 337 kts 314°
2026-05-05 20:16 37.17861 23.77072 11317 ft 333 kts 328°
2026-05-05 20:16 37.19921 23.75790 10749 ft 330 kts 342°
2026-05-05 20:17 37.22153 23.75197 10176 ft 329 kts 355°
2026-05-05 20:17 37.24401 23.75266 9899 ft 313 kts
2026-05-05 20:17 37.26529 23.75446 9772 ft 301 kts
2026-05-05 20:17 37.28582 23.75606 9647 ft 290 kts
2026-05-05 20:18 37.30566 23.75755 9520 ft 281 kts
2026-05-05 20:18 37.32488 23.75841 9399 ft 272 kts 357°
2026-05-05 20:18 37.34343 23.75687 9268 ft 263 kts 356°
2026-05-05 20:18 37.36143 23.75540 9140 ft 256 kts 356°
2026-05-05 20:19 37.37895 23.75402 9018 ft 255 kts 356°
2026-05-05 20:19 37.39665 23.75265 8886 ft 255 kts 356°
2026-05-05 20:19 37.41434 23.75127 8768 ft 255 kts 356°
2026-05-05 20:19 37.43203 23.74988 8643 ft 254 kts 356°
2026-05-05 20:20 37.44965 23.74851 8517 ft 254 kts 356°
2026-05-05 20:20 37.46706 23.74716 8391 ft 247 kts 356°
2026-05-05 20:20 37.48403 23.74586 8265 ft 242 kts 356°
2026-05-05 20:20 37.50079 23.74461 8140 ft 241 kts 356°
2026-05-05 20:21 37.51748 23.74335 8015 ft 240 kts 356°
2026-05-05 20:21 37.53419 23.74206 7887 ft 240 kts 356°
2026-05-05 20:21 37.55091 23.74075 7683 ft 242 kts 356°
2026-05-05 20:21 37.56775 23.73941 7317 ft 244 kts 356°
2026-05-05 20:22 37.58463 23.73805 6996 ft 244 kts 356°
2026-05-05 20:22 37.60157 23.73675 6736 ft 242 kts 356°
2026-05-05 20:22 37.61831 23.73547 6436 ft 241 kts 356°
2026-05-05 20:22 37.63505 23.73415 6141 ft 241 kts 356°
2026-05-05 20:23 37.65175 23.73282 5843 ft 240 kts 356°
2026-05-05 20:23 37.66843 23.73152 5537 ft 240 kts 356°
2026-05-05 20:23 37.68486 23.73026 5235 ft 239 kts 356°
2026-05-05 20:23 37.70148 23.72899 4920 ft 239 kts 357°
2026-05-05 20:24 37.71798 23.73112 4596 ft 240 kts 16°
2026-05-05 20:24 37.73293 23.74025 4252 ft 241 kts 34°
2026-05-05 20:24 37.74683 23.75323 3599 ft 256 kts 37°
2026-05-05 20:24 37.76112 23.76689 3235 ft 254 kts 37°
2026-05-05 20:25 37.77476 23.77984 3090 ft 236 kts 36°
2026-05-05 20:25 37.78761 23.79197 2999 ft 226 kts 37°
2026-05-05 20:25 37.80004 23.80372 3005 ft 217 kts 37°
2026-05-05 20:25 37.81189 23.81493 2922 ft 210 kts 37°
2026-05-05 20:26 37.82352 23.82594 2697 ft 208 kts 37°
2026-05-05 20:26 37.83509 23.83689 2426 ft 208 kts 37°
2026-05-05 20:26 37.84667 23.84787 2152 ft 207 kts 37°
2026-05-05 20:26 37.85779 23.85841 1904 ft 192 kts 37°
2026-05-05 20:27 37.86794 23.86804 1653 ft 174 kts 37°
2026-05-05 20:27 37.87725 23.87686 1426 ft 159 kts 37°
2026-05-05 20:27 37.88571 23.88487 1225 ft 147 kts 37°
2026-05-05 20:27 37.89379 23.89254 1030 ft 144 kts 37°
2026-05-05 20:28 37.90172 23.90009 841 ft 142 kts 37°
2026-05-05 20:28 37.90947 23.90744 663 ft 141 kts 37°
2026-05-05 20:28 37.91728 23.91493 463 ft 140 kts 36°
2026-05-05 20:28 37.92506 23.92226 360 ft 139 kts 36°
2026-05-05 20:29 37.93244 23.92927 293 ft 116 kts 37°
2026-05-05 20:29 37.93706 23.93367 294 ft 45 kts 36°
2026-05-05 20:29 37.93859 23.93539 296 ft 25 kts 51°
2026-05-05 20:29 37.93941 23.93725 298 ft 15 kts 65°
2026-05-05 20:30 37.93964 23.93791 300 ft 8 kts 66°
2026-05-05 20:30 37.93986 23.93854 299 ft 8 kts 66°
2026-05-05 20:30 37.94011 23.93921 300 ft 9 kts 59°
2026-05-05 20:30 37.94059 23.93983 300 ft 11 kts 37°
2026-05-05 20:31 37.94127 23.94048 302 ft 13 kts 37°
2026-05-05 20:31 37.94199 23.94116 303 ft 13 kts 37°
2026-05-05 20:31 37.94279 23.94193 303 ft 16 kts 37°
2026-05-05 20:31 37.94372 23.94280 301 ft 16 kts 36°
2026-05-05 20:32 37.94452 23.94356 302 ft 15 kts 37°
2026-05-05 20:32 37.94544 23.94444 302 ft 18 kts 37°
2026-05-05 20:32 37.94620 23.94515 301 ft 7 kts 36°
2026-05-05 20:32 37.94661 23.94553 303 ft 8 kts 36°
2026-05-05 20:33 37.94683 23.94619 302 ft 10 kts 103°
2026-05-05 20:33 37.94639 23.94704 302 ft 13 kts 128°
2026-05-05 20:33 37.94578 23.94805 304 ft 16 kts 127°
2026-05-05 20:33 37.94507 23.94924 301 ft 16 kts 126°
2026-05-05 20:34 37.94438 23.95041 302 ft 14 kts 127°
2026-05-05 20:34 37.94394 23.95116 301 ft 12 kts 127°
2026-05-05 20:34 37.94340 23.95207 301 ft 14 kts 128°
2026-05-05 20:34 37.94274 23.95317 302 ft 17 kts 127°
2026-05-05 20:35 37.94203 23.95438 302 ft 16 kts 126°
2026-05-05 20:35 37.94156 23.95518 301 ft 9 kts 127°
2026-05-05 20:35 37.94108 23.95556 299 ft 10 kts 179°
2026-05-05 20:35 37.94043 23.95511 302 ft 12 kts 216°
2026-05-05 20:36 37.93968 23.95440 299 ft 15 kts 217°
2026-05-05 20:36 37.93909 23.95375 300 ft 11 kts 235°
2026-05-05 20:36 37.93875 23.95277 300 ft 13 kts 250°
2026-05-05 20:36 37.93836 23.95190 301 ft 12 kts 221°
2026-05-05 20:37 37.93793 23.95144 302 ft 8 kts 218°
2026-05-05 20:37 37.93759 23.95112 300 ft 10 kts 218°
2026-05-05 20:37 37.93683 23.95039 303 ft 8 kts 217°
2026-05-05 20:37 37.93659 23.95011 300 ft 3 kts 246°
2026-05-05 20:38 37.93666 23.94974 301 ft 5 kts 291°
2026-05-05 20:38 37.93685 23.94939 303 ft 1 kts 307°
2026-05-05 20:38 37.93692 23.94926 301 ft 2 kts 307°
2026-05-05 20:38 37.93696 23.94920 303 ft 0 kts 307°